Change the Weather History Date:

Tuesday, March 18, 2014

  Actual Average Record
Temperature  
Mean Temperature 31 °F 38 °F  
Max Temperature 40 °F 52 °F 80 °F (2012)
Min Temperature 21 °F 23 °F -6 °F (1965)
Degree Days  
Heating Degree Days 34 28  
Month to date heating degree days 536 551  
Since 1 July heating degree days 6100 5955  
Cooling Degree Days 0 0  
Month to date cooling degree days 0 0  
Year to date cooling degree days 0 0  
Moisture  
Dew Point 27 °F    
Average Humidity 75    
Maximum Humidity 96    
Minimum Humidity 54    
Precipitation  
Precipitation T in 0.03 in 0.74 in (2003)
Month to date precipitation 0.09 0.27  
Year to date precipitation 1.34 0.83  
Sea Level Pressure  
Sea Level Pressure 29.68 in    
Wind  
Wind Speed 19 mph (North)    
Max Wind Speed 36 mph    
Max Gust Speed 44 mph    
Visibility 6 miles    
Events Fog , Snow    
T = Trace of Precipitation, MM = Missing Value Source: NWS Daily Summary

Daily Weather History Graph

Daily Weather History Graph

Search for Another Location

Airport or City:

Trip Planner

Search our weather history database for the weather conditions in past years. The results will help you decide how hot, cold, wet, or windy it might be!

Date:

Astronomy

Mar. 18, 2014 Rise Set
Actual Time 6:57 AM MDT 7:01 PM MDT
Civil Twilight 6:30 AM MDT 7:29 PM MDT
Nautical Twilight 5:57 AM MDT 8:01 PM MDT
Astronomical Twilight 5:24 AM MDT 8:34 PM MDT
Moon 9:23 PM MDT (3/18) 7:46 AM MDT (3/18)
Length of Visible Light 12h 59m
Length of Day
12h 03m
Waning Gibbous, 96% of the Moon is Illuminated
Mar 18
Waning Gibbous
Mar 23
Last Quarter
Mar 30
New
Apr 7
First Quarter
Apr 15
Full

Hourly Weather History & Observations

Time (MDT) Temp. Windchill Dew Point Humidity Pressure Visibility Wind Dir Wind Speed Gust Speed Precip Events Conditions
12:53 AM 39.9 °F 31.8 °F 28.0 °F 63% 29.40 in 10.0 mi West 15.0 mph - N/A   Mostly Cloudy
1:53 AM 37.9 °F 30.0 °F 23.0 °F 55% 29.39 in 10.0 mi West 12.7 mph - N/A   Overcast
2:21 AM 37.9 °F 32.1 °F 23.0 °F 55% 29.43 in 10.0 mi WNW 8.1 mph - N/A   Overcast
2:30 AM 37.9 °F 32.7 °F 23.0 °F 55% 29.43 in 10.0 mi West 6.9 mph - N/A   Overcast
2:53 AM 37.0 °F 31.6 °F 24.1 °F 59% 29.38 in 10.0 mi North 6.9 mph - N/A   Overcast
3:19 AM 36.0 °F 25.0 °F 32.0 °F 86% 29.41 in 10.0 mi NNE 20.7 mph - N/A   Overcast
3:53 AM 34.0 °F 22.1 °F 32.0 °F 92% 29.40 in 9.0 mi NNE 21.9 mph 28.8 mph N/A   Overcast
4:03 AM 34.0 °F 22.1 °F 30.9 °F 89% 29.44 in 10.0 mi NNE 21.9 mph 26.5 mph N/A   Overcast
4:35 AM 32.0 °F 20.1 °F 30.0 °F 92% 29.48 in 4.0 mi NNE 19.6 mph - 0.00 in Snow Light Snow
4:41 AM 32.0 °F 20.1 °F 30.0 °F 92% 29.48 in 1.8 mi NNE 19.6 mph 27.6 mph 0.00 in Snow Light Snow
4:46 AM 32.0 °F 18.9 °F 30.0 °F 92% 29.49 in 1.0 mi North 24.2 mph 29.9 mph 0.00 in Snow Light Snow
4:53 AM 30.9 °F 18.1 °F 30.0 °F 96% 29.48 in 0.8 mi North 21.9 mph 29.9 mph 0.00 in Snow Light Snow
5:42 AM 30.0 °F 16.9 °F 28.9 °F 96% 29.52 in 0.5 mi NNE 21.9 mph 28.8 mph 0.00 in Fog , Snow Snow
5:53 AM 30.0 °F 19.5 °F 28.9 °F 96% 29.52 in 0.5 mi NNE 13.8 mph - 0.00 in Fog , Snow Snow
6:23 AM 30.0 °F 16.0 °F 28.9 °F 96% 29.54 in 0.5 mi North 25.3 mph 33.4 mph 0.00 in Fog , Snow Snow
6:49 AM 30.2 °F 17.1 °F 28.4 °F 93% 29.57 in 1.0 mi North 21.9 mph 36.8 mph 0.00 in Snow Light Snow
6:53 AM 30.0 °F 15.7 °F 28.0 °F 92% 29.58 in 1.0 mi North 26.5 mph 34.5 mph 0.00 in Snow Light Snow
7:00 AM 30.0 °F 15.4 °F 28.0 °F 92% 29.58 in 1.5 mi North 27.6 mph 35.7 mph 0.00 in Snow Light Snow
7:09 AM 30.0 °F 16.6 °F 28.0 °F 92% 29.59 in 2.5 mi North 23.0 mph 34.5 mph 0.00 in Snow Light Snow
7:17 AM 30.0 °F 17.2 °F 28.0 °F 92% 29.60 in 1.2 mi North 20.7 mph - 0.00 in Snow Light Snow
7:20 AM 30.0 °F 16.3 °F 28.0 °F 92% 29.60 in 0.8 mi North 24.2 mph - 0.00 in Snow Light Snow
7:28 AM 30.0 °F 16.6 °F 28.0 °F 92% 29.60 in 0.5 mi North 23.0 mph 31.1 mph 0.00 in Fog , Snow Snow
7:53 AM 30.0 °F 15.4 °F 28.0 °F 92% 29.64 in 0.5 mi North 27.6 mph 35.7 mph 0.00 in Fog , Snow Snow
8:18 AM 30.0 °F 15.4 °F 28.0 °F 92% 29.63 in 0.5 mi North 27.6 mph 35.7 mph 0.00 in Fog , Snow Light Snow
8:53 AM 30.0 °F 15.4 °F 28.0 °F 92% 29.68 in 0.5 mi North 27.6 mph 38.0 mph 0.00 in Fog , Snow Snow
9:08 AM 30.0 °F 15.2 °F 28.0 °F 92% 29.66 in 0.5 mi North 28.8 mph 39.1 mph 0.00 in Fog , Snow Snow
9:15 AM 30.0 °F 15.4 °F 28.0 °F 92% 29.67 in 0.5 mi North 27.6 mph 38.0 mph 0.00 in Fog , Snow Snow
9:36 AM 30.9 °F 16.2 °F 28.0 °F 89% 29.69 in 1.0 mi North 29.9 mph 40.3 mph 0.00 in Snow Light Snow
9:40 AM 30.9 °F 16.7 °F 28.0 °F 89% 29.69 in 1.5 mi North 27.6 mph 39.1 mph 0.00 in Snow Light Snow
9:50 AM 30.2 °F 15.7 °F 28.4 °F 93% 29.70 in 2.5 mi North 27.6 mph 38.0 mph 0.00 in Snow Light Snow
9:53 AM 30.9 °F 17.2 °F 28.0 °F 89% 29.73 in 3.0 mi North 25.3 mph 38.0 mph 0.00 in   Overcast
10:20 AM 30.9 °F 16.4 °F 27.0 °F 85% 29.72 in 5.0 mi North 28.8 mph 38.0 mph 0.00 in   Overcast
10:32 AM 30.9 °F 16.2 °F 27.0 °F 85% 29.73 in 5.0 mi North 29.9 mph 39.1 mph 0.00 in   Overcast
10:53 AM 32.0 °F 18.1 °F 27.0 °F 82% 29.77 in 10.0 mi North 27.6 mph 34.5 mph 0.00 in   Overcast
11:53 AM 33.1 °F 19.6 °F 27.0 °F 78% 29.80 in 10.0 mi North 27.6 mph 39.1 mph N/A   Overcast
12:42 PM 34.0 °F 19.3 °F 27.0 °F 75% 29.80 in 10.0 mi North 35.7 mph 41.4 mph N/A   Scattered Clouds
12:53 PM 34.0 °F 20.5 °F 27.0 °F 75% 29.84 in 10.0 mi North 28.8 mph 41.4 mph N/A   Partly Cloudy
1:53 PM 37.0 °F 24.9 °F 27.0 °F 67% 29.83 in 10.0 mi North 27.6 mph 40.3 mph N/A   Scattered Clouds
2:53 PM 37.9 °F 27.1 °F 27.0 °F 65% 29.84 in 10.0 mi North 23.0 mph 39.1 mph N/A   Clear
3:53 PM 39.0 °F 28.8 °F 26.1 °F 60% 29.88 in 10.0 mi North 21.9 mph 34.5 mph N/A   Partly Cloudy
4:53 PM 37.9 °F 27.1 °F 25.0 °F 60% 29.93 in 10.0 mi North 23.0 mph 31.1 mph N/A   Overcast
5:53 PM 37.0 °F 26.4 °F 25.0 °F 62% 29.98 in 10.0 mi North 20.7 mph 27.6 mph N/A   Overcast
6:53 PM 36.0 °F 27.5 °F 26.1 °F 67% 30.02 in 10.0 mi North 12.7 mph - N/A   Mostly Cloudy
7:53 PM 33.1 °F 26.1 °F 26.1 °F 75% 30.06 in 10.0 mi NW 8.1 mph - N/A   Scattered Clouds
8:53 PM 32.0 °F 23.6 °F 24.1 °F 73% 30.09 in 10.0 mi NNW 10.4 mph - N/A   Clear
9:53 PM 30.0 °F 22.4 °F 24.1 °F 79% 30.11 in 10.0 mi NW 8.1 mph - N/A   Clear
10:53 PM 26.1 °F 17.6 °F 21.0 °F 81% 30.13 in 10.0 mi WNW 8.1 mph - N/A   Clear
11:53 PM 23.0 °F 14.7 °F 19.9 °F 88% 30.13 in 10.0 mi WNW 6.9 mph - N/A   Clear